When you browse on this site, cookies collect data to enhance your experience and personalize the content and advertising you see.
Visit our Privacy Policy to learn more. By continuing to use the site, you agree to this use of cookies and data.
  • In Czech Republic
  • List of Countries
  • For 7 days
  • Water Temperature
  • Satellite Maps
  • Weather Map
  • Weather Widgets
  • user-avatar
    Login

    Hourly Weather Al-Budajji

    Today, 24 May, Friday

    Time Temperature Precipitation Wind Pressure Humidity
    00:00 +33°C° 0 mm 4 mps 757 mmHg 58%
    01:00 +33°C° 0 mm 3 mps 757 mmHg 58%
    02:00 +33°C° 0 mm 4 mps 757 mmHg 58%
    03:00 +33°C° 0 mm 4 mps 757 mmHg 58%
    04:00 +33°C° 0 mm 4 mps 757 mmHg 59%
    05:00 +33°C° 0 mm 4 mps 757 mmHg 60%
    06:00 +32°C° 0 mm 4 mps 757 mmHg 60%
    07:00 +32°C° 0 mm 4 mps 758 mmHg 61%
    08:00 +32°C° 0 mm 4 mps 758 mmHg 61%
    09:00 +32°C° 0 mm 4 mps 758 mmHg 62%
    10:00 +33°C° 0 mm 4 mps 759 mmHg 63%
    11:00 +33°C° 0 mm 4 mps 759 mmHg 63%
    12:00 +33°C° 0 mm 3 mps 759 mmHg 64%
    13:00 +33°C° 0 mm 3 mps 759 mmHg 64%
    14:00 +33°C° 0 mm 3 mps 759 mmHg 65%
    15:00 +33°C° 0 mm 3 mps 759 mmHg 66%
    16:00 +33°C° 0 mm 3 mps 758 mmHg 67%
    17:00 +33°C° 0 mm 3 mps 758 mmHg 69%
    18:00 +32°C° 0 mm 2 mps 758 mmHg 71%
    19:00 +31°C° 0 mm 2 mps 758 mmHg 72%
    20:00 +31°C° 0 mm 1 mps 759 mmHg 74%
    21:00 +31°C° 0 mm 1 mps 759 mmHg 76%
    22:00 +29°C° 0 mm 0 mps 759 mmHg 78%
    23:00 +29°C° 0 mm 0 mps 759 mmHg 76%

    Tomorrow, 25 May, Saturday

    Time Temperature Precipitation Wind Pressure Humidity
    00:00 +31°C° 0 mm 1 mps 759 mmHg 75%
    01:00 +31°C° 0 mm 1 mps 758 mmHg 73%
    02:00 +31°C° 0 mm 1 mps 758 mmHg 72%
    03:00 +31°C° 0 mm 1 mps 758 mmHg 71%
    04:00 +31°C° 0 mm 1 mps 758 mmHg 71%
    05:00 +31°C° 0 mm 1 mps 758 mmHg 71%
    06:00 +31°C° 0 mm 1 mps 758 mmHg 71%
    07:00 +31°C° 0 mm 1 mps 759 mmHg 72%
    08:00 +29°C° 0 mm 0 mps 759 mmHg 71%
    09:00 +29°C° 0 mm 0 mps 759 mmHg 71%
    10:00 +29°C° 0 mm 0 mps 759 mmHg 70%
    11:00 +30°C° 0 mm 0 mps 759 mmHg 68%
    12:00 +30°C° 0 mm 0 mps 759 mmHg 66%
    13:00 +30°C° 0 mm 0 mps 759 mmHg 64%
    14:00 +33°C° 0 mm 1 mps 759 mmHg 58%
    15:00 +33°C° 0 mm 1 mps 758 mmHg 53%
    16:00 +35°C° 0 mm 2 mps 758 mmHg 48%
    17:00 +34°C° 0 mm 2 mps 758 mmHg 52%
    18:00 +34°C° 0 mm 2 mps 758 mmHg 56%
    19:00 +33°C° 0 mm 3 mps 757 mmHg 60%
    20:00 +33°C° 0 mm 3 mps 758 mmHg 60%
    21:00 +33°C° 0 mm 3 mps 758 mmHg 60%
    22:00 +33°C° 0 mm 3 mps 758 mmHg 60%
    23:00 +33°C° 0 mm 3 mps 758 mmHg 61%

    Day after tomorrow, 26 May, Sunday

    Time Temperature Precipitation Wind Pressure Humidity
    00:00 +33°C° 0 mm 3 mps 758 mmHg 61%
    01:00 +33°C° 0 mm 3 mps 757 mmHg 62%
    02:00 +33°C° 0 mm 3 mps 757 mmHg 62%
    03:00 +32°C° 0 mm 2 mps 757 mmHg 63%
    04:00 +32°C° 0 mm 2 mps 756 mmHg 64%
    05:00 +31°C° 0 mm 1 mps 756 mmHg 65%
    06:00 +31°C° 0 mm 1 mps 757 mmHg 67%
    07:00 +29°C° 0 mm 0 mps 757 mmHg 69%
    08:00 +31°C° 0 mm 1 mps 757 mmHg 67%
    09:00 +32°C° 0 mm 1 mps 758 mmHg 66%
    10:00 +32°C° 0 mm 1 mps 758 mmHg 64%
    11:00 +32°C° 0 mm 1 mps 758 mmHg 62%
    12:00 +33°C° 0 mm 1 mps 758 mmHg 61%
    13:00 +34°C° 0 mm 2 mps 758 mmHg 59%
    14:00 +34°C° 0 mm 2 mps 758 mmHg 58%
    15:00 +34°C° 0 mm 2 mps 757 mmHg 58%
    16:00 +34°C° 0 mm 2 mps 757 mmHg 58%
    17:00 +34°C° 0 mm 3 mps 757 mmHg 58%
    18:00 +34°C° 0 mm 3 mps 756 mmHg 59%
    19:00 +34°C° 0 mm 3 mps 756 mmHg 59%
    20:00 +33°C° 0 mm 3 mps 757 mmHg 60%
    21:00 +32°C° 0 mm 2 mps 757 mmHg 61%
    22:00 +32°C° 0 mm 2 mps 757 mmHg 63%
    23:00 +32°C° 0 mm 2 mps 757 mmHg 61%

    27 May, Monday

    Time Temperature Precipitation Wind Pressure Humidity
    00:00 +32°C° 0 mm 2 mps 757 mmHg 60%
    01:00 +32°C° 0 mm 2 mps 756 mmHg 59%
    02:00 +32°C° 0 mm 2 mps 756 mmHg 61%
    03:00 +32°C° 0 mm 1 mps 756 mmHg 64%
    04:00 +30°C° 0 mm 0 mps 756 mmHg 66%
    05:00 +30°C° 0 mm 0 mps 756 mmHg 66%
    06:00 +30°C° 0 mm 0 mps 756 mmHg 65%
    07:00 +30°C° 0 mm 0 mps 756 mmHg 65%
    08:00 +32°C° 0 mm 1 mps 757 mmHg 61%
    09:00 +32°C° 0 mm 2 mps 757 mmHg 57%
    10:00 +34°C° 0 mm 2 mps 758 mmHg 54%
    11:00 +34°C° 0 mm 2 mps 757 mmHg 55%
    12:00 +34°C° 0 mm 3 mps 757 mmHg 55%
    13:00 +34°C° 0 mm 3 mps 757 mmHg 56%
    14:00 +34°C° 0 mm 3 mps 757 mmHg 58%
    15:00 +34°C° 0 mm 4 mps 757 mmHg 59%
    16:00 +34°C° 0 mm 4 mps 756 mmHg 60%
    17:00 +34°C° 0 mm 4 mps 756 mmHg 60%
    18:00 +34°C° 0 mm 3 mps 756 mmHg 60%
    19:00 +34°C° 0 mm 3 mps 756 mmHg 59%
    20:00 +34°C° 0 mm 3 mps 756 mmHg 60%
    21:00 +34°C° 0 mm 3 mps 757 mmHg 60%
    22:00 +34°C° 0 mm 4 mps 757 mmHg 60%
    23:00 +34°C° 0 mm 3 mps 756 mmHg 60%

    28 May, Tuesday

    Time Temperature Precipitation Wind Pressure Humidity
    00:00 +34°C° 0 mm 3 mps 756 mmHg 61%
    01:00 +34°C° 0 mm 3 mps 756 mmHg 61%
    02:00 +34°C° 0 mm 3 mps 756 mmHg 60%
    03:00 +34°C° 0 mm 3 mps 755 mmHg 60%
    04:00 +34°C° 0 mm 4 mps 755 mmHg 60%
    05:00 +34°C° 0 mm 3 mps 756 mmHg 60%
    06:00 +34°C° 0 mm 2 mps 756 mmHg 60%
    07:00 +34°C° 0 mm 2 mps 756 mmHg 60%
    08:00 +34°C° 0 mm 2 mps 756 mmHg 59%
    09:00 +34°C° 0 mm 3 mps 757 mmHg 58%
    10:00 +34°C° 0 mm 3 mps 757 mmHg 57%
    11:00 +34°C° 0 mm 3 mps 757 mmHg 58%
    12:00 +34°C° 0 mm 3 mps 757 mmHg 60%
    13:00 +34°C° 0 mm 3 mps 757 mmHg 62%
    14:00 +34°C° 0 mm 3 mps 756 mmHg 60%
    15:00 +34°C° 0 mm 4 mps 756 mmHg 59%
    16:00 +34°C° 0 mm 4 mps 756 mmHg 58%
    17:00 +34°C° 0 mm 4 mps 756 mmHg 58%
    18:00 +34°C° 0 mm 4 mps 756 mmHg 58%
    19:00 +34°C° 0 mm 4 mps 756 mmHg 58%
    20:00 +34°C° 0 mm 4 mps 756 mmHg 58%
    21:00 +34°C° 0 mm 4 mps 756 mmHg 57%
    22:00 +34°C° 0 mm 4 mps 756 mmHg 57%
    23:00 +34°C° 0 mm 3 mps 756 mmHg 58%

    29 May, Wednesday

    Time Temperature Precipitation Wind Pressure Humidity
    00:00 +34°C° 0 mm 3 mps 755 mmHg 59%
    01:00 +34°C° 0 mm 3 mps 755 mmHg 61%
    02:00 +32°C° 0 mm 2 mps 755 mmHg 62%
    03:00 +32°C° 0 mm 2 mps 755 mmHg 64%
    04:00 +32°C° 0 mm 1 mps 754 mmHg 65%
    05:00 +32°C° 0 mm 1 mps 755 mmHg 65%
    06:00 +32°C° 0 mm 1 mps 755 mmHg 66%
    07:00 +30°C° 0 mm 0 mps 756 mmHg 66%
    08:00 +34°C° 0 mm 2 mps 756 mmHg 62%
    09:00 +34°C° 0 mm 3 mps 756 mmHg 59%
    10:00 +34°C° 0 mm 4 mps 757 mmHg 55%
    11:00 +34°C° 0 mm 3 mps 756 mmHg 58%
    12:00 +34°C° 0 mm 2 mps 756 mmHg 61%
    13:00 +33°C° 0 mm 1 mps 756 mmHg 64%
    14:00 +35°C° 0 mm 2 mps 755 mmHg 60%
    15:00 +35°C° 0 mm 3 mps 755 mmHg 57%
    16:00 +35°C° 0 mm 3 mps 755 mmHg 53%
    17:00 +35°C° 0 mm 3 mps 755 mmHg 54%
    18:00 +35°C° 0 mm 3 mps 755 mmHg 54%
    19:00 +35°C° 0 mm 3 mps 755 mmHg 54%
    20:00 +35°C° 0 mm 3 mps 755 mmHg 53%
    21:00 +35°C° 0 mm 3 mps 755 mmHg 52%
    22:00 +35°C° 0 mm 3 mps 756 mmHg 52%
    23:00 +35°C° 0 mm 3 mps 755 mmHg 52%
    Show more